FW7745 Weather Reports


time (UTC)temp
C
wind
direction
speed
KPH
gust
KPH
rain 1hr
cm
rain 24hr
cm
rain mn
cm
humidity
%
barometer
mb
20260507130349 13 302 6.4 8.0 0.00 0.18 0.18 63 1015.0
20260507125848 13 322 6.4 8.0 0.00 0.18 0.18 63 1014.8
20260507125345 13 332 3.2 3.2 0.00 0.18 0.18 63 1014.6
20260507124843 13 0 4.8 4.8 0.00 0.18 0.18 62 1014.6
20260507124338 13 330 0.0 1.6 0.00 0.18 0.18 63 1014.8
20260507123837 13 10 4.8 4.8 0.00 0.18 0.18 64 1015.0
20260507123334 13 328 1.6 1.6 0.00 0.18 0.18 64 1015.3
20260507122830 13 328 1.6 3.2 0.00 0.18 0.18 65 1015.0
20260507122325 13 344 3.2 4.8 0.00 0.18 0.18 67 1015.0
20260507121823 13 277 4.8 4.8 0.00 0.18 0.18 69 1014.6
20260507121318 13 331 0.0 1.6 0.00 0.18 0.18 69 1014.8
20260507120814 13 359 6.4 9.7 0.00 0.18 0.18 70 1014.8
20260507120310 13 279 1.6 1.6 0.00 0.18 0.18 72 1014.8
20260507115807 13 33 3.2 8.0 0.00 0.18 0.18 74 1014.5
20260507115306 13 292 4.8 4.8 0.00 0.18 0.18 76 1014.4
20260507114759 13 329 1.6 1.6 0.00 0.18 0.18 81 1014.7
20260507114256 13 242 0.0 0.0 0.00 0.18 0.18 83 1014.3
20260507113754 13 293 0.0 1.6 0.00 0.18 0.18 84 1014.3
20260507113250 13 299 3.2 4.8 0.00 0.18 0.18 84 1014.5
20260507112748 13 325 1.6 1.6 0.00 0.18 0.18 84 1014.4
20260507112244 13 297 1.6 1.6 0.00 0.18 0.18 84 1014.4
20260507111743 13 18 3.2 3.2 0.00 0.18 0.18 84 1014.1
20260507111239 13 324 3.2 3.2 0.00 0.18 0.18 84 1014.4
20260507110735 12 8 1.6 1.6 0.00 0.18 0.18 84 1014.2
20260507110232 12 181 1.6 1.6 0.00 0.18 0.18 84 1014.3
20260507105728 12 32 3.2 4.8 0.00 0.18 0.18 84 1014.3
20260507105224 12 286 0.0 0.0 0.00 0.18 0.18 84 1014.1
20260507104722 12 13 0.0 0.0 0.00 0.18 0.18 85 1014.0
20260507104218 12 330 3.2 3.2 0.00 0.18 0.18 85 1014.1
20260507103714 12 292 1.6 1.6 0.00 0.18 0.18 86 1014.1
20260507103211 12 302 0.0 0.0 0.00 0.18 0.18 86 1014.0
20260507102707 12 271 0.0 0.0 0.00 0.18 0.18 86 1013.9
20260507102204 12 252 0.0 1.6 0.00 0.18 0.18 86 1013.9
20260507101700 12 180 0.0 1.6 0.00 0.18 0.18 86 1014.1
20260507101155 12 310 1.6 1.6 0.00 0.18 0.18 86 1013.8
20260507100653 12 304 0.0 1.6 0.00 0.18 0.18 86 1013.8
20260507100151 12 358 3.2 3.2 0.00 0.18 0.18 86 1013.4
20260507095649 12 297 0.0 0.0 0.00 0.18 0.18 86 1013.6
20260507095145 12 347 0.0 0.0 0.00 0.18 0.18 86 1013.6
20260507094642 12 324 0.0 1.6 0.00 0.18 0.18 86 1013.6
20260507094138 12 296 3.2 3.2 0.00 0.18 0.18 86 1013.6
20260507093636 12 0 1.6 1.6 0.00 0.18 0.18 87 1013.6
20260507093135 12 352 3.2 3.2 0.00 0.18 0.18 87 1013.5
20260507092631 12 268 0.0 0.0 0.00 0.18 0.18 87 1013.3
20260507092127 12 269 0.0 0.0 0.00 0.18 0.18 88 1013.4
20260507091624 12 329 1.6 1.6 0.00 0.18 0.18 88 1013.5
20260507091120 13 308 0.0 1.6 0.00 0.18 0.18 88 1013.7
20260507090616 12 296 1.6 1.6 0.00 0.18 0.18 88 1013.7
20260507090113 13 344 4.8 8.0 0.00 0.18 0.18 88 1013.6
20260507085610 13 287 0.0 0.0 0.00 0.18 0.18 87 1013.6
20260507085107 12 0 3.2 3.2 0.00 0.18 0.18 87 1013.5
20260507084604 13 311 1.6 3.2 0.00 0.18 0.18 87 1013.3
20260507084101 13 347 1.6 3.2 0.00 0.18 0.18 87 1013.4
20260507083557 12 11 4.8 8.0 0.00 0.18 0.18 88 1013.6
20260507083054 12 346 3.2 4.8 0.00 0.18 0.18 90 1013.6
20260507082550 13 288 0.0 0.0 0.00 0.18 0.18 91 1013.1
20260507082047 13 323 3.2 4.8 0.00 0.18 0.18 91 1013.3
20260507081543 13 298 0.0 0.0 0.00 0.18 0.18 91 1013.1
20260507081040 13 296 1.6 1.6 0.18 0.18 0.18 91 1013.2
20260507080536 13 277 0.0 0.0 0.18 0.18 0.18 90 1012.7
20260507080032 13 290 3.2 4.8 0.00 0.15 0.15 90 1012.8
20260507075527 13 358 0.0 1.6 0.13 0.15 0.15 89 1012.8
20260507075024 13 14 1.6 1.6 0.13 0.15 0.15 88 1012.7
20260507074521 13 327 4.8 11.3 0.00 0.13 0.13 88 1012.7
20260507074020 13 284 1.6 1.6 0.00 0.13 0.13 88 1012.6
20260507073515 13 337 8.0 11.3 0.00 0.13 0.13 89 1012.5
20260507073012 13 333 0.0 0.0 0.00 0.13 0.13 89 1012.3
20260507072510 14 331 0.0 0.0 0.00 0.13 0.13 90 1012.5
20260507072007 14 324 4.8 8.0 0.00 0.13 0.13 90 1012.7
20260507071504 13 347 0.0 1.6 0.00 0.13 0.13 91 1012.0
20260507071000 13 336 0.0 1.6 0.00 0.13 0.13 92 1012.3
20260507070458 13 275 1.6 3.2 0.00 0.13 0.13 93 1012.5
20260507065954 13 306 0.0 1.6 0.00 0.13 0.13 93 1012.5
20260507065451 13 335 1.6 3.2 0.00 0.13 0.13 93 1012.4
20260507064948 13 16 0.0 1.6 0.00 0.13 0.13 94 1012.6
20260507064446 14 286 3.2 3.2 0.00 0.13 0.13 94 1012.6
20260507063944 14 329 1.6 1.6 0.00 0.13 0.13 94 1012.6
20260507063440 14 310 0.0 1.6 0.00 0.13 0.13 94 1012.5
20260507062938 14 306 1.6 3.2 0.00 0.13 0.13 94 1012.6
20260507062435 14 317 3.2 3.2 0.00 0.13 0.13 94 1012.5
20260507061932 14 6 0.0 1.6 0.00 0.13 0.13 93 1012.1
20260507061430 14 320 1.6 3.2 0.00 0.13 0.13 93 1012.2
20260507060928 14 15 4.8 8.0 0.00 0.13 0.13 93 1012.3
20260507060425 14 289 3.2 3.2 0.00 0.13 0.13 92 1012.1
20260507055921 14 7 8.0 12.9 0.00 0.13 0.13 92 1012.3
20260507055417 14 321 6.4 8.0 0.00 0.13 0.13 92 1012.4
20260507054914 14 349 4.8 9.7 0.00 0.13 0.13 91 1012.4
20260507054410 15 320 9.7 12.9 0.00 0.13 0.13 91 1012.3
20260507053908 15 333 6.4 9.7 0.00 0.13 0.13 91 1012.5
20260507053405 15 320 3.2 4.8 0.00 0.13 0.13 92 1012.6
20260507052904 15 344 1.6 3.2 0.00 0.13 0.13 91 1012.4
20260507052400 15 299 0.0 0.0 0.00 0.13 0.13 91 1012.1
20260507051857 15 351 0.0 1.6 0.00 0.13 0.13 91 1012.2
20260507051355 15 327 1.6 3.2 0.00 0.13 0.13 90 1012.3
20260507050851 15 307 0.0 0.0 0.18 0.13 0.13 90 1012.8
20260507050348 15 340 4.8 4.8 0.18 0.13 0.13 89 1012.7
20260507045845 15 3 0.0 1.6 0.13 0.10 0.10 88 1012.7
20260507045341 15 260 0.0 0.0 0.13 0.10 0.10 87 1012.6
20260507044839 15 280 4.8 8.0 0.30 0.10 0.10 85 1013.1
20260507044335 16 312 4.8 4.8 0.30 0.08 0.08 83 1012.3
20260507043831 16 332 1.6 3.2 0.30 0.05 0.05 81 1012.5
20260507043328 16 280 1.6 3.2 0.18 0.03 0.03 80 1012.5
20260507042824 16 346 3.2 3.2 0.00 0.00 0.00 80 1012.7
20260507042320 16 313 1.6 1.6 0.00 0.00 0.00 84 1012.4
20260507041817 16 297 1.6 1.6 0.00 0.00 0.00 86 1012.6
20260507041313 16 299 1.6 1.6 0.00 0.00 0.00 86 1012.4
20260507040811 16 317 1.6 3.2 0.00 0.00 0.00 86 1012.3
20260507040307 17 317 1.6 1.6 0.00 0.00 0.00 86 1012.3
20260507035803 17 355 4.8 4.8 0.00 0.56 0.56 84 1012.2
20260507035258 17 319 1.6 3.2 0.00 0.56 0.56 81 1011.9
20260507034756 17 308 6.4 9.7 0.00 0.56 0.56 79 1012.2
20260507034253 18 309 8.0 20.9 0.00 0.56 0.56 77 1011.9
20260507033751 18 357 3.2 4.8 0.00 0.56 0.56 76 1012.1
20260507033249 18 340 1.6 3.2 0.00 0.56 0.56 76 1012.0
20260507032745 18 340 8.0 9.7 0.00 0.56 0.56 75 1012.1
20260507032241 18 4 9.7 14.5 0.00 0.56 0.56 75 1011.9
20260507031738 18 0 8.0 11.3 0.00 0.56 0.56 75 1011.8
20260507031235 18 342 3.2 4.8 0.00 0.56 0.56 75 1011.8
20260507030732 18 252 6.4 11.3 0.00 0.56 0.56 77 1011.5
20260507030229 18 0 4.8 8.0 0.00 0.56 0.56 79 1011.6
20260507025726 18 314 3.2 4.8 0.00 0.56 0.56 79 1011.6
20260507025223 18 356 9.7 14.5 0.00 0.56 0.56 79 1011.7
20260507024722 18 40 1.6 3.2 0.00 0.56 0.56 79 1011.7
20260507024218 18 304 11.3 11.3 0.00 0.56 0.56 79 1011.5
20260507023714 18 335 4.8 8.0 0.00 0.56 0.56 81 1011.4
20260507023211 19 35 3.2 3.2 0.00 0.56 0.56 82 1010.9
20260507022708 19 313 3.2 4.8 0.00 0.56 0.56 83 1011.1
20260507022204 19 287 6.4 8.0 0.00 0.56 0.56 84 1011.2
20260507021701 19 314 4.8 8.0 0.00 0.56 0.56 85 1011.3
20260507021155 20 323 3.2 3.2 0.00 0.56 0.56 86 1011.1
20260507020655 20 33 1.6 3.2 0.00 0.56 0.56 84 1010.9
20260507020150 20 330 0.0 0.0 0.00 0.56 0.56 83 1010.6
20260507015649 20 269 0.0 0.0 0.00 0.56 0.56 83 1010.8
20260507015146 20 278 0.0 0.0 0.00 0.56 0.56 83 1010.9
20260507014642 20 287 0.0 0.0 0.00 0.56 0.56 83 1010.6
20260507014138 20 254 0.0 1.6 0.00 0.56 0.56 82 1010.8
20260507013635 20 128 1.6 1.6 0.00 0.56 0.56 82 1011.2
20260507013132 20 168 1.6 1.6 0.00 0.56 0.56 82 1011.2
20260507012630 20 200 3.2 3.2 0.00 0.56 0.56 82 1011.1
20260507012125 20 207 1.6 3.2 0.00 0.56 0.56 82 1010.9
20260507011624 21 222 1.6 1.6 0.00 0.56 0.56 82 1011.2
20260507011119 21 198 1.6 1.6 0.00 0.56 0.56 82 1011.1
20260507010614 21 196 1.6 3.2 0.00 0.56 0.56 81 1011.2
20260507010110 21 237 3.2 3.2 0.00 0.56 0.56 81 1011.3
20260507005608 21 278 0.0 0.0 0.00 0.56 0.56 81 1011.1
20260507005104 21 337 0.0 1.6 0.00 0.56 0.56 81 1011.2
20260507004601 21 180 6.4 8.0 0.00 0.56 0.56 81 1010.9
20260507004058 21 128 1.6 3.2 0.00 0.56 0.56 81 1010.9
20260507003554 21 157 0.0 1.6 0.00 0.56 0.56 81 1010.6
20260507003049 21 223 4.8 4.8 0.00 0.56 0.56 81 1010.7
20260507002546 21 188 1.6 3.2 0.00 0.56 0.56 80 1010.7
20260507002042 21 185 3.2 3.2 0.00 0.56 0.56 80 1010.6
20260507001539 21 184 4.8 4.8 0.00 0.56 0.56 80 1010.8
20260507001036 21 168 1.6 1.6 0.00 0.56 0.56 80 1010.6
20260507000532 21 160 1.6 1.6 0.00 0.56 0.56 80 1010.6
20260507000028 21 265 1.6 1.6 0.00 0.56 0.56 80 1010.8
20260506235526 21 294 1.6 1.6 0.00 0.56 0.56 80 1010.3
20260506235021 21 255 0.0 1.6 0.00 0.56 0.56 80 1010.3
20260506234519 21 235 1.6 3.2 0.00 0.56 0.56 80 1010.5
20260506234016 21 173 0.0 0.0 0.00 0.56 0.56 80 1010.3
20260506233512 21 265 1.6 1.6 0.00 0.56 0.56 80 1010.0
20260506233010 21 252 3.2 3.2 0.00 0.56 0.56 80 1010.2
20260506232505 21 262 3.2 4.8 0.00 0.56 0.56 80 1010.2
20260506232001 21 216 0.0 0.0 0.00 0.56 0.56 80 1010.2
20260506231459 21 176 4.8 4.8 0.00 0.56 0.56 80 1010.1
20260506230956 21 206 4.8 8.0 0.00 0.56 0.56 80 1010.2
20260506230452 21 187 1.6 1.6 0.00 0.56 0.56 80 1009.9
20260506225949 21 225 4.8 8.0 0.00 0.56 0.56 79 1009.9
20260506225446 21 185 4.8 8.0 0.00 0.56 0.56 79 1009.8
20260506224943 21 164 8.0 9.7 0.00 0.56 0.56 79 1010.0
20260506224440 21 264 4.8 8.0 0.00 0.56 0.56 79 1010.1
20260506223937 21 196 8.0 11.3 0.00 0.56 0.56 80 1010.0
20260506223432 21 180 4.8 4.8 0.00 0.56 0.56 80 1010.0
20260506222930 21 242 1.6 1.6 0.00 0.56 0.56 80 1010.0
20260506222426 21 205 8.0 9.7 0.00 0.56 0.56 79 1009.8
20260506221923 21 213 8.0 11.3 0.00 0.56 0.56 79 1009.8
20260506221420 21 216 9.7 12.9 0.00 0.56 0.56 79 1010.0
20260506220918 21 185 11.3 12.9 0.00 0.56 0.56 79 1009.9
20260506220413 21 187 4.8 4.8 0.00 0.56 0.56 79 1009.8
20260506215910 21 170 6.4 9.7 0.00 0.56 0.56 79 1009.7
20260506215406 21 211 9.7 12.9 0.00 0.56 0.56 78 1010.0
20260506214902 21 222 6.4 8.0 0.00 0.56 0.56 78 1009.9
20260506214359 21 291 1.6 1.6 0.00 0.56 0.56 78 1009.9
20260506213857 21 247 11.3 14.5 0.00 0.56 0.56 78 1010.1
20260506213354 21 242 4.8 9.7 0.00 0.56 0.56 79 1009.9
20260506212852 21 124 6.4 11.3 0.00 0.56 0.56 79 1010.1
20260506212347 20 205 8.0 11.3 0.00 0.56 0.56 79 1009.9
20260506211842 21 205 9.7 11.3 0.00 0.56 0.56 78 1009.8
20260506211338 21 139 6.4 9.7 0.00 0.56 0.56 78 1009.9
20260506210836 21 156 8.0 11.3 0.00 0.56 0.56 78 1009.7
20260506210333 21 177 12.9 14.5 0.00 0.56 0.56 78 1009.7
20260506205830 21 166 9.7 11.3 0.00 0.56 0.56 79 1009.7
20260506205326 21 246 3.2 3.2 0.00 0.56 0.56 79 1009.9
20260506204822 21 283 9.7 12.9 0.00 0.56 0.56 78 1009.6
20260506204320 21 204 4.8 9.7 0.00 0.56 0.56 78 1009.6
20260506203818 21 193 6.4 11.3 0.00 0.56 0.56 79 1009.4
20260506203315 21 245 9.7 12.9 0.00 0.56 0.56 78 1009.2
20260506202811 21 289 6.4 8.0 0.00 0.56 0.56 78 1009.6
20260506202308 21 188 4.8 8.0 0.00 0.56 0.56 78 1009.6
20260506201805 21 271 11.3 22.5 0.00 0.56 0.56 79 1009.5
20260506201302 20 195 11.3 16.1 0.00 0.56 0.56 80 1009.5
20260506200759 20 218 11.3 16.1 0.00 0.56 0.56 79 1009.6
20260506200255 20 16 8.0 12.9 0.00 0.56 0.56 80 1009.8
20260506195751 20 191 9.7 14.5 0.00 0.56 0.56 80 1009.7
20260506195248 20 143 14.5 16.1 0.00 0.56 0.56 80 1009.7
20260506194746 20 159 14.5 20.9 0.00 0.56 0.56 80 1009.9
20260506194242 20 171 14.5 22.5 0.00 0.56 0.56 80 1009.8
20260506193740 20 184 17.7 25.7 0.00 0.56 0.56 80 1010.0
20260506193236 20 211 14.5 20.9 0.00 0.56 0.56 80 1009.5
20260506192732 20 155 11.3 12.9 0.00 0.56 0.56 80 1009.7
20260506192229 20 162 17.7 20.9 0.00 0.56 0.56 80 1009.7
20260506191726 20 154 3.2 4.8 0.00 0.56 0.56 80 1009.6
20260506191222 20 130 6.4 9.7 0.00 0.56 0.56 81 1009.8
20260506190720 20 112 4.8 8.0 0.00 0.56 0.56 81 1010.1
20260506190216 20 195 11.3 14.5 0.00 0.56 0.56 81 1010.3
20260506185714 20 176 16.1 22.5 0.00 0.56 0.56 81 1010.3
20260506185210 20 270 6.4 11.3 0.00 0.56 0.56 81 1010.1
20260506184708 20 221 12.9 20.9 0.00 0.56 0.56 81 1010.0
20260506184205 20 188 8.0 11.3 0.00 0.56 0.56 81 1010.3
20260506183701 20 166 8.0 12.9 0.00 0.56 0.56 81 1010.3
20260506183157 19 200 8.0 12.9 0.00 0.56 0.56 82 1010.3
20260506182654 20 182 11.3 14.5 0.00 0.56 0.56 81 1010.3
20260506182151 19 265 9.7 11.3 0.00 0.56 0.56 82 1010.5
20260506181644 19 195 17.7 20.9 0.00 0.56 0.56 81 1010.7
20260506181141 20 188 16.1 20.9 0.00 0.56 0.56 81 1010.3
20260506180637 20 122 8.0 11.3 0.00 0.56 0.56 81 1010.4
20260506180134 19 222 17.7 22.5 0.00 0.56 0.56 81 1010.7
20260506175630 20 189 9.7 11.3 0.00 0.56 0.56 80 1010.5
20260506175126 20 219 9.7 12.9 0.00 0.56 0.56 81 1010.5
20260506174626 19 232 4.8 9.7 0.00 0.56 0.56 82 1010.8
20260506174122 19 122 9.7 12.9 0.00 0.56 0.56 82 1010.7
20260506173619 19 208 6.4 11.3 0.00 0.56 0.56 83 1010.5
20260506173116 19 91 1.6 3.2 0.00 0.56 0.56 83 1010.8
20260506172613 18 186 8.0 14.5 0.00 0.56 0.56 84 1010.6
20260506172109 18 166 11.3 14.5 0.00 0.56 0.56 84 1010.8
20260506171608 18 169 17.7 22.5 0.00 0.56 0.56 84 1010.8
20260506171105 18 180 12.9 16.1 0.00 0.56 0.56 85 1010.8
20260506170602 18 284 3.2 8.0 0.00 0.56 0.56 85 1010.9
20260506170059 18 125 4.8 8.0 0.00 0.56 0.56 85 1010.9
20260506165558 18 197 16.1 17.7 0.00 0.56 0.56 85 1010.9
20260506165053 18 186 14.5 16.1 0.00 0.56 0.56 86 1010.7
20260506164551 18 191 12.9 16.1 0.00 0.56 0.56 86 1010.9
20260506164048 18 188 12.9 17.7 0.00 0.56 0.56 87 1011.2
20260506163543 18 113 17.7 22.5 0.00 0.56 0.56 88 1011.3
20260506163039 17 198 9.7 12.9 0.00 0.56 0.56 89 1011.2
20260506162536 17 270 16.1 22.5 0.00 0.56 0.56 90 1011.1
20260506162033 17 157 14.5 24.1 0.00 0.56 0.56 90 1011.3
20260506161531 17 223 17.7 22.5 0.00 0.56 0.56 91 1011.4
20260506161027 17 174 12.9 16.1 0.00 0.56 0.56 93 1011.4
20260506160525 17 189 16.1 20.9 0.00 0.56 0.56 94 1011.1
20260506160022 17 216 11.3 14.5 0.00 0.56 0.56 95 1011.5
20260506155520 17 201 14.5 20.9 0.00 0.56 0.56 95 1011.5
20260506153652 16 185 16.1 20.9 0.13 0.56 0.56 96 1011.8
20260506153149 16 232 8.0 11.3 0.13 0.56 0.56 96 1011.5
20260506152646 16 191 8.0 12.9 0.18 0.53 0.53 96 1011.4
20260506152143 16 203 14.5 16.1 0.30 0.53 0.53 96 1011.5
20260506151642 16 157 9.7 17.7 0.13 0.51 0.51 96 1011.8
20260506151138 16 182 9.7 11.3 0.00 0.48 0.48 96 1012.1
20260506150635 16 207 9.7 12.9 0.18 0.48 0.48 95 1012.0
20260506150132 16 144 11.3 20.9 0.18 0.48 0.48 95 1011.9
20260506145629 16 207 8.0 9.7 0.36 0.48 0.48 95 1012.3
20260506145126 16 203 4.8 9.7 0.18 0.46 0.46 95 1012.2
20260506144624 16 127 8.0 9.7 0.13 0.43 0.43 95 1012.3
20260506144120 16 182 1.6 3.2 0.13 0.43 0.43 95 1012.4
20260506143618 16 188 6.4 11.3 0.18 0.41 0.41 95 1012.4
20260506143116 16 204 6.4 9.7 0.30 0.41 0.41 95 1012.2
20260506142614 16 231 4.8 9.7 0.48 0.41 0.41 94 1012.4
20260506142112 16 200 6.4 9.7 0.48 0.36 0.36 94 1012.2
20260506141609 16 177 3.2 3.2 0.71 0.33 0.33 94 1012.0
20260506141107 16 157 6.4 11.3 0.61 0.28 0.28 93 1012.0
20260506140604 16 127 11.3 12.9 0.43 0.23 0.23 93 1012.6
20260506135558 16 175 4.8 4.8 0.36 0.15 0.15 92 1012.4
20260506135054 16 164 8.0 9.7 0.30 0.13 0.13 91 1012.4
20260506134551 16 177 11.3 17.7 0.30 0.10 0.10 90 1012.5
20260506134047 16 197 11.3 16.1 0.30 0.08 0.08 89 1012.6
20260506133544 17 193 8.0 11.3 0.13 0.05 0.05 87 1012.5
20260506133041 17 199 12.9 17.7 0.30 0.05 0.05 85 1012.7
20260506132538 17 181 4.8 4.8 0.18 0.03 0.03 84 1012.5
20260506132036 17 194 3.2 4.8 0.00 0.00 0.00 84 1012.6
20260506131532 17 210 14.5 17.7 0.00 0.00 0.00 83 1012.7
20260506131029 17 196 4.8 8.0 0.00 0.00 0.00 83 1012.4